Regional Weather Roundup
Issued by NWS Nashville, TN

Home | Current Version | Previous Version | Text Only | Print | Product List | Glossary On
Versions: 1 2 3 4 5 6 7 8 9 10 11 12 13 14 15 16 17 18 19 20 21 22 23 24 25 26 27 28 29 30 31 32 33 34 35 36 37 38 39 40 41 42 43 44 45 46 47 48 49
000
ASUS44 KOHX 050210
RWROHX
MIDDLE TENNESSEE HOURLY WEATHER ROUNDUP
NATIONAL WEATHER SERVICE NASHVILLE TN
900 PM CDT TUE AUG 04 2015

NOTE: "FAIR" INDICATES FEW OR NO CLOUDS BELOW 12,000 FEET WITH
NO SIGNIFICANT WEATHER AND/OR OBSTRUCTIONS TO VISIBILITY.

* THESE REPORTS ARE NOT UNDER NWS QUALITY CONTROL AND MAY NOT
  REPORT WEATHER SUCH AS PRECIPITATION AND FOG.


TNZ005>011-023>034-057-059-062>066-078-080-050300
...NORTHERN MIDDLE TENNESSEE...

CITY           SKY/WX    TMP DP  RH WIND       PRES   REMARKS
CLARKSVILLE    MOCLDY    81  70  69 NE6       30.01R
CROSSVILLE     CLOUDY    76  70  82 CALM      30.09R
DICKSON        MOCLDY    79  75  89 CALM      30.02R
LIVINGSTON     CLOUDY    79  71  76 NE6       30.07R
NASHVILLE      MOCLDY    87  67  51 CALM      30.01R HX  90
ROCKWOOD       CLOUDY    76  69  79 NW3       30.08R
SMYRNA         MOCLDY    82  71  69 CALM      30.01R
$$
TNZ056-058-060-061-075>077-079-093>097-050300
...SOUTHERN MIDDLE TENNESSEE...

CITY           SKY/WX    TMP DP  RH WIND       PRES   REMARKS
COLUMBIA       CLEAR     82  75  78 CALM      30.00R
LEWISBURG      MOCLDY    80  72  76 CALM      30.01R
MCMINNVILLE    PTCLDY    79  75  89 CALM      30.04R
SHELBYVILLE    CLEAR     79  73  83 CALM      30.03R
TULLAHOMA      CLEAR     81  72  74 CALM      30.05R
WINCHESTER     CLEAR     79  73  83 CALM      30.03R
$$


...KEY TO REMARKS...
VSB - VISIBILITY IN MILES
WCI - WIND CHILL INDEX
HX  - HEAT INDEX




USA.gov is the U.S. government's official web portal to all federal, state and local government web resources and services.